Regional Weather Roundup
Issued by NWS

Home | Current Version | Previous Version | Text Only | Print | Product List | Glossary On
Versions: 1 2 3 4 5 6 7 8 9 10 11 12 13 14 15 16 17 18 19 20 21 22 23 24 25 26 27 28 29 30 31 32 33 34 35 36 37 38 39 40 41 42 43 44 45 46 47 48 49 50
000
ASUS43 KDMX 231407
RWRIA

WEATHER ROUNDUP FOR IOWA
NATIONAL WEATHER SERVICE DES MOINES IA
800 AM CST SUN NOV 23 2014

NOTE: "FAIR" INDICATES FEW OR NO CLOUDS BELOW 12,000 FEET WITH NO
SIGNIFICANT WEATHER AND/OR OBSTRUCTIONS TO VISIBILITY.

* - THESE STATIONS ARE NOT NWS STATIONS...THUS NOT UNDER NWS
QUALITY CONTROL.  THEY ALSO DO NOT REPORT WEATHER SUCH
AS PRECIPITATION OR FOG.

IAZ001>003-012>014-020>022-031>034-043>046-231500-
   NORTHWEST IOWA

CITY           SKY/WX    TMP DP  RH WIND       PRES   REMARKS
CARROLL *      CLOUDY    52  50  93 S13       29.49R
CHEROKEE *     CLOUDY    50  50 100 SW12      29.46R FOG
DENISON *      CLOUDY    52  52 100 S10       29.47S
LE MARS *      PTCLDY    48  45  87 W8G16     29.49R
ORANGE CITY *  PTCLDY    46  45  93 NW10      29.46R FOG
SHELDON *      FOG       46  46 100 W9        29.45S VSB 1/2
SIOUX CITY     CLOUDY    51  48  89 W9        29.48R
SPENCER        CLOUDY    49  48  97 S8        29.45S FOG
STORM LAKE *   CLOUDY    50  50 100 S12       29.48R FOG
$$

IAZ055>058-069>071-079>083-090>094-231500-
   SOUTHWEST IOWA

CITY           SKY/WX    TMP DP  RH WIND       PRES   REMARKS
ATLANTIC *     CLOUDY    52  52 100 S7        29.49F FOG
AUDUBON *      MOCLDY    52  46  82 S6        29.50S
CLARINDA *     CLOUDY    54  54 100 S7        29.51F FOG
COUNCIL BLFS * CLOUDY    52  52 100 S9        29.47S
CRESTON *      FOG       52  52 100 S13G18    29.50F VSB 1/4
HARLAN  *      CLOUDY    52  52 100 S9G16     29.52S
LAMONI         CLOUDY    50  50 100 S6        29.53F FOG
RED OAK *      CLOUDY    54  54 100 S7        29.50S FOG
SHENANDOAH *   CLOUDY    54  54 100 S9        29.50S FOG
$$

IAZ047>049-059>061-072>074-084-231500-
   CENTRAL IOWA

CITY           SKY/WX    TMP DP  RH WIND       PRES   REMARKS
AMES           CLOUDY    51  49  92 S8        29.52S
ANKENY *       CLOUDY    52  52 100 S8G14     29.52S
CHARITON *     RAIN      50  50 100 SE5       29.54F
DES MOINES     DRIZZLE   53  50  89 S13       29.52S FOG
GRINNELL*      RAIN      50  50 100 S14       29.54F
KNOXVILLE *    LGT RAIN  52  50  93 S7        29.54F
MARSHALLTOWN   CLOUDY    51  50  96 S13       29.53F FOG
PELLA *        LGT RAIN  52  50  93 SE8       29.56F
PERRY *        CLOUDY    52  50  93 S8        29.51S
$$

IAZ004>006-015-016-023>025-035-036-231500-
   NORTH CENTRAL IOWA

CITY           SKY/WX    TMP DP  RH WIND       PRES   REMARKS
ALGONA *       CLOUDY    50  50 100 S16       29.48F
CLARION *      CLOUDY    50  50 100 S15       29.50S FOG
ESTHERVILLE    CLOUDY    49  48  97 S10       29.45R FOG
FORT DODGE *   CLOUDY    52  48  87 S13G18    29.51R
MASON CITY     CLOUDY    50  49  96 S12       29.51S
FOREST CITY *  CLOUDY    50  50 100 S9        29.49S
IOWA FALLS *   DRIZZLE   50  48  93 S10       29.53S
$$

IAZ007>011-017>019-026>030-037>042-050>054-066-231500-
   NORTHEAST IOWA

CITY           SKY/WX    TMP DP  RH WIND       PRES   REMARKS
CEDAR RAPIDS   LGT RAIN  49  49 100 S9        29.58F FOG
CHARLES CITY * CLOUDY    50  50 100 S13       29.53S FOG
CLINTON *      CLOUDY    48  46  93 S9        29.66F
DECORAH *      CLOUDY    50  50 100 S10G17    29.54S
DUBUQUE        CLOUDY    48  48 100 S16       29.61F FOG
MONTICELLO *   CLOUDY    48  48 100 SE12      29.61S FOG
OELWEIN *      CLOUDY    50  50 100 S17       29.56S FOG
WATERLOO       CLOUDY    50  50 100 MISG      29.55R
$$

IAZ064-065-067-068-078-231500-
   EAST CENTRAL IOWA

CITY           SKY/WX    TMP DP  RH WIND       PRES   REMARKS
DAVENPORT      LGT RAIN  50  46  86 S15       29.65S
IOWA CITY      LGT RAIN  49  49 100 SE8       29.62S FOG
MT. PLEASANT * RAIN      48  48 100 S9        29.62F
MUSCATINE *    LGT RAIN  50  48  93 SE8       29.63F
QUAD CITIES    HVY RAIN  50  47  89 S13       29.64F FOG
$$

IAZ062-063-075>077-085>089-095>099-231500-
   SOUTHEAST IOWA

CITY           SKY/WX    TMP DP  RH WIND       PRES   REMARKS
BURLINGTON     LGT RAIN  50  49  96 S8        29.62F FOG
FAIRFIELD *    RAIN      50  48  93 S13       29.60F
FORT MADISON * LGT RAIN  52  52 100 SE8       29.63F
KEOKUK *       LGT RAIN  52  52 100 S8        29.61F
OSKALOOSA *    RAIN      50  48  93 S12       29.57F
CENTERVILLE *  RAIN      50  50 100 SE9       29.57F
OTTUMWA        LGT RAIN  50  49  96 S10       29.57F FOG
WASHINGTON *   LGT RAIN  50  50 100 S13       29.60F
$$

ABBREVIATIONS USED IN REMARKS
   TC - TEMPERATURES IN CELSIUS
  WCI - WIND CHILL INDEX
   HX - HEAT INDEX
  VSB - VISIBILITY
$$



USA.gov is the U.S. government's official web portal to all federal, state and local government web resources and services.